This demonstration page uses our WeatherBlox Daily Observations layout. Learn more.

Left ArrowRight Arrow

36.19886, -115.1175

Hourly Observations for June 2, 2021

Temp ( °F °C ) Dew Point ( °F °C ) Humidity (%) Winds ( mph kmh ) Pressure ( in mb ) Visibility ( mi km ) Precip ( " mm )
12:53 am 00:53 Clear 85 29.4 26 -3.3 12 12 N N/A 29.73 1007 10 16 N/A
1:53 am 01:53 Clear 85 29.4 25 -3.9 11 11 N N/A 29.73 1007 10 16 N/A
2:53 am 02:53 Clear 80 26.7 28 -2.2 15 15 WNW 3 6 29.74 1007 10 16 N/A
3:53 am 03:53 Clear 80 26.7 26 -3.3 14 14 NW 6 9 29.74 1007 10 16 N/A
4:53 am 04:53 Clear 78 25.6 29 -1.7 16 16 VRB 3 6 29.75 1007 10 16 N/A
5:53 am 05:53 Sunny 76 24.4 32 undefined 20 20 NNW 6 9 29.77 1008 10 16 N/A
6:53 am 06:53 Sunny 81 27.2 25 -3.9 13 13 NNW 5 7 29.78 1009 10 16 N/A
7:53 am 07:53 Sunny 85 29.4 30 -1.1 14 14 NNW 5 7 29.79 1009 10 16 N/A
8:53 am 08:53 Sunny 90 32.2 31 -0.6 12 12 NNW 6 9 29.80 1009 10 16 N/A
9:53 am 09:53 Sunny 93 33.9 29 -1.7 10 10 NNE 6 9 29.79 1009 10 16 N/A
10:53 am 10:53 Sunny 95 35 25 -3.9 8 8 SSE 3 6 29.78 1008 10 16 N/A
11:53 am 11:53 Sunny 99 37.2 26 -3.3 7 7 VRB 5 7 29.77 1008 10 16 N/A
12:53 pm 12:53 Sunny 102 38.9 27 -2.8 7 7 VRB 3 6 29.74 1007 10 16 N/A
1:53 pm 13:53 Sunny 105 40.6 29 -1.7 7 7 N N/A 29.70 1006 10 16 N/A
2:53 pm 14:53 Sunny 106 41.1 30 -1.1 7 7 VRB 7 11 29.68 1005 10 16 N/A
3:53 pm 15:53 Sunny 107 41.7 29 -1.7 6 6 SW 6 9 29.65 1004 10 16 N/A
4:53 pm 16:53 Sunny 107 41.7 29 -1.7 6 6 VRB 7 11 29.63 1003 10 16 N/A
5:53 pm 17:53 Sunny 107 41.7 29 -1.7 6 6 SW 14 22 29.61 1003 10 16 N/A
6:53 pm 18:53 Sunny 105 40.6 28 -2.2 7 7 SW 13 20 29.62 1003 10 16 N/A
7:53 pm 19:53 Sunny 103 39.4 29 -1.7 7 7 SSW 10 17 29.61 1003 10 16 N/A
8:53 pm 20:53 Clear 100 37.8 30 -1.1 8 8 SSW 7 11 29.61 1003 10 16 N/A
9:53 pm 21:53 Clear 98 36.7 29 -1.7 9 9 SW 9 15 29.62 1003 10 16 N/A
10:53 pm 22:53 Clear 96 35.6 31 -0.6 10 10 N 5 7 29.63 1003 10 16 N/A
11:53 pm 23:53 Clear 90 32.2 35 1.7 14 14 WNW 5 7 29.63 1004 10 16 N/A

Powered by AerisWeather